Погода в Яреге

Россия / Республика Коми     63°26′04″N   53°34′39″E
темп.,
°C
ветер,
м/с
пор.,
м/с
влажн.,
%
обл.,
%
осадки,
мм/ч
давл.,
гПа
погр.,
м
31 июля, сб
сб3100:00+12юв3963100 0.0 1004283
03:00+11ююв3868100 0.0 1003233
06:00+14ююв356772 0.0 1002270
09:00+15юв3877100 0.0 1002432
12:00+21юв485276 0.0 10001332
15:00+17ююз51086100 1.8 998500
18:00+15юв51195100 3.8 996624
21:00+16ююз3998100 4.3 995503
1 августа, вс
вс100:00+15зюз3797100 0.1 995460
03:00+14юз249978 0.2 996165
06:00+14зюз269790 0.1 997382
09:00+16з369082 0.4 998605
12:00+17з3784100 2.8 999771
15:00+18з5882100 4.0 1001897
18:00+17з4108842 1.2 1002575
21:00+14зюз2996100 2.0 1003194
2 августа, пн
пн200:00+12зюз27974 0.0 1004127
03:00+12зюз26987 0.0 1005133
06:00+15юз37880 0.0 1005254
09:00+19юз4867100 0.0 1005618
12:00+16ююз399051 0.3 1005558
15:00+20зюз367296 0.8 10041073
18:00+19з38765 0.6 1005869
21:00+15з22955 0.8 100621
3 августа, вт
вт300:00+13зюз23974 0.0 100756
03:00+13юз24975 0.0 100774
06:00+16юз24852 0.0 1008208
09:00+22ю245512 0.0 1007986
12:00+26ю4647100 0.0 10061878
15:00+26ююв4746100 0.0 10041775
18:00+24ю5959100 0.0 1003857
21:00+18ююв5159558 2.2 1003425
4 августа, ср
ср400:00+18ююв3899100 4.4 1003254
03:00+18юз31098100 4.4 1003379
06:00+18зюз379426 0.0 1005601
09:00+21зюз356112 0.0 1007911
12:00+24зюз344849 0.0 10071401
15:00+25юз354599 0.0 10081827
18:00+20з2275100 0.3 100829
21:00+17ю1191100 2.4 100811